TimeEST,TemperatureF,Dew PointF,Humidity,Sea Level PressureIn,VisibilityMPH,Wind Direction,Wind SpeedMPH,Gust SpeedMPH,PrecipitationIn,Events,Conditions,WindDirDegrees,DateUTC
12:51 AM,34.0,10.9,38,30.38,10.0,Variable,6.9,17.3,N/A,,Clear,0,2013-02-02 05:51:00
1:51 AM,33.1,12.0,42,30.38,10.0,Variable,6.9,-,N/A,,Clear,0,2013-02-02 06:51:00
2:51 AM,32.0,12.9,45,30.38,10.0,Variable,4.6,-,N/A,,Clear,0,2013-02-02 07:51:00
3:51 AM,32.0,10.9,42,30.38,10.0,NNW,8.1,-,N/A,,Clear,330,2013-02-02 08:51:00
4:51 AM,32.0,12.0,44,30.37,10.0,Variable,4.6,-,N/A,,Clear,0,2013-02-02 09:51:00
5:51 AM,32.0,10.9,42,30.38,10.0,Variable,3.5,-,N/A,,Clear,0,2013-02-02 10:51:00
6:51 AM,30.9,12.9,47,30.40,10.0,Variable,3.5,-,N/A,,Clear,0,2013-02-02 11:51:00
7:51 AM,33.1,12.0,42,30.41,10.0,Calm,Calm,-,N/A,,Clear,0,2013-02-02 12:51:00
8:51 AM,36.0,15.1,43,30.40,10.0,NNE,3.5,-,N/A,,Clear,30,2013-02-02 13:51:00
9:51 AM,37.0,16.0,42,30.40,10.0,NW,4.6,-,N/A,,Clear,310,2013-02-02 14:51:00
10:51 AM,39.0,17.1,41,30.39,10.0,WNW,5.8,-,N/A,,Clear,290,2013-02-02 15:51:00
11:51 AM,39.9,16.0,38,30.37,10.0,West,5.8,-,N/A,,Clear,270,2013-02-02 16:51:00
12:51 PM,39.0,15.1,38,30.32,10.0,Variable,4.6,-,N/A,,Clear,0,2013-02-02 17:51:00
1:51 PM,41.0,18.0,40,30.30,10.0,Variable,5.8,-,N/A,,Clear,0,2013-02-02 18:51:00
2:51 PM,42.1,19.9,41,30.26,10.0,SSW,4.6,-,N/A,,Clear,200,2013-02-02 19:51:00
3:51 PM,43.0,19.9,40,30.24,10.0,SW,5.8,-,N/A,,Clear,220,2013-02-02 20:51:00
4:51 PM,44.1,25.0,47,30.21,10.0,SSW,5.8,-,N/A,,Clear,210,2013-02-02 21:51:00
5:51 PM,45.0,23.0,42,30.18,10.0,SW,8.1,-,N/A,,Clear,220,2013-02-02 22:51:00
6:51 PM,46.9,30.0,52,30.17,10.0,SW,8.1,-,N/A,,Clear,230,2013-02-02 23:51:00
7:51 PM,50.0,37.9,63,30.14,10.0,SSW,11.5,18.4,N/A,,Clear,210,2013-02-03 00:51:00
8:51 PM,54.0,42.1,64,30.11,10.0,SW,16.1,23.0,N/A,,Scattered Clouds,230,2013-02-03 01:51:00
9:51 PM,55.0,44.1,67,30.06,10.0,SW,16.1,23.0,N/A,,Mostly Cloudy,230,2013-02-03 02:51:00
10:51 PM,48.0,39.9,74,30.05,10.0,NW,5.8,-,N/A,,Clear,320,2013-02-03 03:51:00
11:51 PM,46.0,39.0,76,30.02,10.0,WNW,5.8,-,N/A,,Clear,290,2013-02-03 04:51:00